Regional Weather Roundup
Issued by NWS

Home | Current Version | Previous Version | Graphics & Text | Print | Product List | Glossary On
Versions: 1 2 3 4 5 6 7 8 9 10 11 12 13 14 15 16 17 18 19 20 21 22 23 24 25 26 27 28 29 30 31 32 33 34 35 36 37 38 39 40 41 42 43 44 45 46 47 48 49 50
000
ASUS43 KTOP 311508
RWRKS

WEATHER ROUNDUP FOR KANSAS
NATIONAL WEATHER SERVICE GOODLAND KS
1000 AM CDT FRI OCT 31 2014

NOTE:  "FAIR" INDICATES FEW OR NO CLOUDS BELOW 12,000 FEET WITH NO
SIGNIFICANT WEATHER AND/OR OBSTRUCTIONS TO VISIBILITY.

KSZ001>006-013>018-027>032-041>047-311600-
NORTHWEST KANSAS

CITY           SKY/WX    TMP DP  RH WIND       PRES   REMARKS
GOODLAND       CLOUDY    31  30  96 E8        30.50R
HAYS           CLOUDY    36  23  60 NE15      30.55S WCI  26
HILL CITY      CLOUDY    33  25  72 NE13G18   30.57R WCI  24
RUSSELL        MOSUNNY   33  23  66 NE17G29   30.55R WCI  22
$$

KSZ061>065-074>080-084>089-311600-
SOUTHWEST KANSAS

CITY           SKY/WX    TMP DP  RH WIND       PRES   REMARKS
DODGE CITY     CLOUDY    34  29  82 NE16      30.52R WCI  24
ELKHART          N/A     39  30  70 NE5         N/A
GARDEN CITY    CLOUDY    33  30  88 NE13      30.52R WCI  24
GREAT BEND     MOSUNNY   34  23  64 N17       30.55S WCI  23
LIBERAL        SUNNY     39  30  70 NE9       30.51S
PRATT          MOSUNNY   36  30  80 NE17      30.52R WCI  25
$$

KSZ066>073-081>083-090>101-311600-
SOUTHEAST KANSAS

CITY           SKY/WX    TMP DP  RH WIND       PRES   REMARKS
CHANUTE        FLURRIES  37  26  64 N24G32    30.46R WCI  26
COFFEYVILLE    LGT RAIN  43  32  65 N20G29    30.44R
HUTCHINSON     MOSUNNY   38  26  62 N14G26    30.52R WCI  30
MEDICINE LODGE   N/A     39  31  72 N14G26    30.51R WCI  31
NEWTON         CLOUDY    36  23  60 N21       30.51R WCI  24
PARSONS        SUNNY     42  30  62 N14G28    30.46R
WICHITA INTL   MOSUNNY   40  27  59 N21G30    30.50R WCI  30
WICHITA JABRA  MOSUNNY   39  28  64 N20G28    30.49R WCI  29
WICHITA MCCONL PTSUNNY   40  28  60 N22       30.49R WCI  30
WINFIELD       SUNNY     42  32  67 N18G26    30.49R
$$

KSZ007>012-019>026-033>040-048>060-102>105-311600-
NORTHEAST KANSAS

CITY           SKY/WX    TMP DP  RH WIND       PRES   REMARKS
CONCORDIA      SUNNY     33  21  61 N10       30.57R WCI  25
EMPORIA        SUNNY     36  23  59 N16G28    30.50R WCI  26
LAWRENCE       FLURRIES  37  21  52 N15G23    30.51R WCI  28
MANHATTAN      SUNNY     36  22  56 NE15G22   30.55R WCI  27
MARYSVILLE     SUNNY     32  21  64 NE15G22   30.54S WCI  22
OLATHE IND     SUNNY     35  19  52 N26G33    30.48R WCI  22
OLATHE EXE     SUNNY     36  20  52 N18G26    30.47R WCI  26
SALINA         PTSUNNY   34  22  61 N16       30.57R WCI  24
TOPEKA BILLARD SUNNY     37  21  52 N14G24    30.53R WCI  28
TOPEKA FORBES  SUNNY     36  22  56 N15G23    30.51R WCI  27
$$



USA.gov is the U.S. government's official web portal to all federal, state and local government web resources and services.